Torna al catalogo

THOR ABLESTAR DEB

AttivoVLEO
NORAD 122·DEBRIS·🇺🇸 United States

Lanciato Jun 29, 1961 da Cape Canaveral Space Force Station

Loading…

Prossimi Passaggi (prossime 24 ore)

TLE

AggiornatoSource: Space-Track

Epoca: Sep 8, 2026, 12:01 UTC

1 00122U 61015G   26251.50128443  .00007751  00000-0  58708-3 0  9992
2 00122  66.7401 299.2717 0031279 144.9124 215.4080 15.02431845406783

Traccia THOR ABLESTAR DEB in tempo reale con AllMySat

Download on the App Store